Regional Weather Roundup
Issued by NWS Spokane, WA

Home | Current Version | Previous Version | Text Only | Print | Product List | Glossary On
Versions: 1 2 3 4 5 6 7 8 9 10 11 12 13 14 15 16 17 18 19 20 21 22 23 24 25 26 27 28 29 30 31 32 33 34 35 36 37 38 39 40 41 42 43 44 45 46 47 48 49 50
000
NZUS01 KOTX 300257
RWROTX
EASTERN WASHINGTON/NORTHERN IDAHO ROUNDUP
NATIONAL WEATHER SERVICE, SPOKANE WA
800 PM PDT TUE JUL 29 2014

Note: "fair" indicated few or no clouds below 12,000 feet with no
significant weather and/or obstructions to visibility.

...NORTHEAST WASHINGTON AND NORTHERN IDAHO PANHANDLE...

CITY           SKY/WX    TMP DP  RH WIND       PRES   REMARKS
SPOKANE INTL   PTCLDY    95  36  12 SW3       29.98S HX  90
SPOKANE DOWNTO CLEAR     88  40  18 NE3       29.96S
DEER PARK        N/A     85  49  28 CALM      29.98S

...SOUTHEAST WASHINGTON AND SOUTHERN IDAHO PANHANDLE...

CITY           SKY/WX    TMP DP  RH WIND       PRES   REMARKS
WALLA WALLA    PTCLDY    94  34  12 W6        29.92R
PULLMAN/MOSCOW PTCLDY    87  45  23 CALM      30.02S
LOWELL           N/A     76  60  57 N3        29.94R

...COLUMBIA BASIN...

CITY           SKY/WX    TMP DP  RH WIND       PRES   REMARKS
EPHRATA        PTCLDY    98  33  10 S8        29.90S HX  92
MOSES LAKE     PTCLDY    98  43  15 SE5       29.91S HX  94
TRI CITIES     PTCLDY    94  50  22 CALM      29.85S HX  91
HERMISTON      PTCLDY    94  46  19 S5        29.87R HX  90
PENDLETON      MOCLDY    95  37  13 NW8       29.94R HX  90

...EAST SLOPES CASCADES...

CITY           SKY/WX    TMP DP  RH WIND       PRES   REMARKS
THE DALLES       N/A     89  60  37 NW16G25   29.90R
YAKIMA         MOCLDY    96  47  18 NW9       29.91R HX  92
ELLENSBURG     PTCLDY    88  47  24 NW23      29.98R
OMAK           PTCLDY    94  35  12 CALM      29.89S

...SOUTHERN BRITISH COLUMBIA...

CITY           SKY/WX    TMP DP  RH WIND       PRES   REMARKS

...WESTERN MONTANA...

CITY           SKY/WX    TMP DP  RH WIND       PRES   REMARKS

...NEIGHBORING CITIES...

CITY           SKY/WX    TMP DP  RH WIND       PRES   REMARKS
SEATTLE        PTCLDY    80  52  37 N10       30.08R



USA.gov is the U.S. government's official web portal to all federal, state and local government web resources and services.